Change the Weather History Date:

Tuesday, October 29, 2013

  Actual Average Record
Temperature  
Mean Temperature 68 °F -  
Max Temperature 78 °F 76 °F 86 °F (2002)
Min Temperature 57 °F 58 °F 39 °F (2008)
Cooling Degree Days 2    
Growing Degree Days 18 (Base 50)    
Moisture  
Dew Point 60 °F    
Average Humidity 77    
Maximum Humidity 90    
Minimum Humidity 58    
Precipitation  
Precipitation 0.00 in - - ()
Sea Level Pressure  
Sea Level Pressure 30.25 in    
Wind  
Wind Speed 4 mph (NNE)    
Max Wind Speed 13 mph    
Max Gust Speed 20 mph    
Visibility 9 miles    
Events      
Averages and records for this station are not official NWS values.
T = Trace of Precipitation, MM = Missing Value Source: NWS Daily Summary

Daily Weather History Graph

Daily Weather History Graph

Search for Another Location

Airport or City:

Trip Planner

Search our weather history database for the weather conditions in past years. The results will help you decide how hot, cold, wet, or windy it might be!

Date:

Astronomy

Oct. 29, 2013 Rise Set
Actual Time 7:38 AM EDT 6:40 PM EDT
Civil Twilight 7:13 AM EDT 7:05 PM EDT
Nautical Twilight 6:45 AM EDT 7:33 PM EDT
Astronomical Twilight 6:17 AM EDT 8:01 PM EDT
Moon 2:47 AM EDT (10/29) 3:35 PM EDT (10/29)
Length of Visible Light 11h 51m
Length of Day
11h 02m
Waning Crescent, 25% of the Moon is Illuminated
Oct 29
Waning Crescent
Nov 3
New
Nov 10
First Quarter
Nov 17
Full
Nov 25
Last Quarter

Hourly Weather History & Observations

Time (EDT) Temp. Dew Point Humidity Pressure Visibility Wind Dir Wind Speed Gust Speed Precip Events Conditions
12:53 AM 61.0 °F 57.0 °F 87% 30.23 in 8.0 mi Calm Calm - N/A   Clear
1:53 AM 60.1 °F 57.0 °F 90% 30.22 in 9.0 mi North 3.5 mph - N/A   Clear
2:53 AM 61.0 °F 57.9 °F 90% 30.21 in 6.0 mi Calm Calm - N/A   Clear
3:53 AM 59.0 °F 55.9 °F 90% 30.21 in 8.0 mi Calm Calm - N/A   Clear
4:53 AM 57.9 °F 55.0 °F 90% 30.22 in 7.0 mi North 4.6 mph - N/A   Clear
5:53 AM 60.1 °F 57.0 °F 90% 30.23 in 6.0 mi NNW 3.5 mph - N/A   Clear
6:53 AM 62.1 °F 59.0 °F 90% 30.25 in 5.0 mi North 3.5 mph - N/A   Clear
7:53 AM 63.0 °F 60.1 °F 90% 30.26 in 3.0 mi North 5.8 mph - N/A   Clear
8:53 AM 68.0 °F 64.0 °F 87% 30.27 in 5.0 mi NNE 4.6 mph - N/A   Clear
9:53 AM 72.0 °F 64.9 °F 78% 30.28 in 9.0 mi NNE 6.9 mph - N/A   Clear
10:53 AM 73.9 °F 62.1 °F 66% 30.30 in 10.0 mi NE 9.2 mph - N/A   Partly Cloudy
11:53 AM 77.0 °F 62.1 °F 60% 30.30 in 10.0 mi NE 12.7 mph 19.6 mph N/A   Scattered Clouds
12:53 PM 78.1 °F 62.1 °F 58% 30.28 in 10.0 mi ENE 12.7 mph - N/A   Partly Cloudy
1:53 PM 75.9 °F 62.1 °F 62% 30.25 in 10.0 mi ENE 11.5 mph - N/A   Clear
2:53 PM 77.0 °F 61.0 °F 58% 30.23 in 10.0 mi ENE 10.4 mph - N/A   Partly Cloudy
3:53 PM 75.9 °F 61.0 °F 60% 30.23 in 10.0 mi NE 11.5 mph 17.3 mph N/A   Clear
4:53 PM 75.0 °F 62.1 °F 64% 30.24 in 10.0 mi NE 9.2 mph - N/A   Clear
5:53 PM 73.0 °F 62.1 °F 68% 30.24 in 10.0 mi ENE 10.4 mph - N/A   Clear
6:53 PM 71.1 °F 62.1 °F 73% 30.24 in 10.0 mi NE 3.5 mph - N/A   Clear
7:53 PM 69.1 °F 60.1 °F 73% 30.26 in 10.0 mi NE 3.5 mph - N/A   Clear
8:53 PM 68.0 °F 60.1 °F 76% 30.26 in 10.0 mi NNE 4.6 mph - N/A   Clear
9:53 PM 66.9 °F 60.1 °F 79% 30.27 in 10.0 mi NNE 3.5 mph - N/A   Clear
10:53 PM 66.0 °F 60.1 °F 81% 30.28 in 10.0 mi NNE 4.6 mph - N/A   Clear
11:53 PM 64.0 °F 59.0 °F 84% 30.27 in 10.0 mi NE 3.5 mph - N/A   Clear